Regional Weather Roundup
Issued by NWS Kansas City/Pleasant Hill, MO

Home | Current Version | Previous Version | Graphics & Text | Print | Product List | Glossary Off
Versions: 1 2 3 4 5 6 7 8 9 10 11 12 13 14 15 16 17 18 19 20 21 22 23 24 25 26 27

000
ASUS43 KEAX 260310
RWREAX

WEATHER ROUNDUP FOR EASTERN KANSAS AND NORTHWEST MISSOURI
NATIONAL WEATHER SERVICE KANSAS CITY/PLEASANT HILL MO
1000 PM CDT SUN JUN 25 2017

KSZ040-057-103>105-MOZ028-029-037-043-260400-
...KANSAS CITY METROPOLITAN AREA...

CITY           SKY/WX    TMP DP  RH WIND       PRES   REMARKS
K.C. INTL      PTCLDY    60  51  72 W5        30.23S
K.C. DOWNTOWN  CLEAR     63  52  67 W3        30.23S
LEES SUMMIT    CLOUDY    61  52  72 W5        30.24R
OLATHE - IXD   CLEAR     57  55  93 CALM      30.24S
OLATHE - OJC   CLEAR     60  53  77 NW3       30.24R
LAWRENCE       CLEAR     56  55  97 CALM      30.24S

$$

MOZ001>008-011>017-020>025-030>033-038>040-044>046-053-054-260400-
...NORTHERN AND CENTRAL MISSOURI...

CITY           SKY/WX    TMP DP  RH WIND       PRES   REMARKS
ST. JOSEPH     CLEAR     63  55  75 CALM      30.23S
MOSBY          CLEAR     59  52  77 CALM      30.23S
WARRENSBURG    CLEAR     59  50  72 CALM      30.22S
WHITEMAN AFB   PTCLDY    62  53  71 NW3       30.22R
CLINTON        CLOUDY    64  55  72 N3        30.22S
SEDALIA        PTCLDY    62  53  72 W6        30.23S
WARSAW         NOT AVBL
CHILLICOTHE      N/A     60  52  74 CALM      30.23R
KIRKSVILLE     CLEAR     58  50  75 W3        30.21R

$$

MOZ041-047>049-056>058-063>065-088>090-097-260400-
...EASTERN AND SOUTHERN MISSOURI...

CITY           SKY/WX    TMP DP  RH WIND       PRES   REMARKS
ST. LOUIS INTL PTCLDY    71  46  40 NW6       30.19R
SPIRIT OF STL  MOCLDY    71  48  43 N5        30.17R
COLUMBIA       PTCLDY    66  51  58 W5        30.21R
JEFFERSON CITY CLOUDY    69  51  52 W7        30.20R
ROLLA          CLOUDY    69  51  52 NW8       30.20S
OSAGE BEACH    CLOUDY    70  49  47 N5        30.23R
SPRINGFIELD    CLOUDY    69  57  65 N7        30.22R
BRANSON        MOCLDY    72  57  60 CALM      30.23S
JOPLIN         CLOUDY    69  57  65 NE5       30.23S
WEST PLAINS    CLEAR     70  54  56 N5        30.23R

$$

IAZ060-094-KSZ022-034>040-054-083-096-NEZ052-066-093-260400-
...KANSAS...SOUTHEAST NEBRASKA AND IOWA...

CITY           SKY/WX    TMP DP  RH WIND       PRES   REMARKS
TOPEKA         CLEAR     58  57  97 CALM      30.23S
MANHATTAN      PTCLDY    59  57  93 CALM      30.23S
EMPORIA        CLOUDY    61  56  83 CALM      30.23S
CHANUTE        CLOUDY    68  53  58 NE6       30.22S
WICHITA        PTCLDY    63  56  78 E9        30.23R
OMAHA          PTCLDY    65  45  48 E5        30.20F
LINCOLN        CLEAR     66  46  48 SE5       30.21F
FALLS CITY     CLEAR     62  52  69 CALM      30.23R
LAMONI         CLEAR     61  47  59 W6        30.22R
DES MOINES     PTCLDY    67  42  40 NW3       30.19S

$$





USA.gov is the U.S. government's official web portal to all federal, state and local government web resources and services.